Overview Statistics Trail Chart Weather Telemetry Raw packets
 

This is the latest recevied weather packets stored in our database for station/object KB9PVH-8. If no packets are shown the sender has not sent any weather packets the latest 10 day(s).

<< 39 40 41 42 43 44 45 >>
Time Temp. Humidity Pressure Rain* Wind** Luminosity Snow
1787880623 20° C - - 0 mm 0 m/s - -
1787880523 20.56° C - - 0 mm 0 m/s - -
1787879906 20.56° C - - 0 mm 0 m/s - -
1787879783 20.56° C - - 0 mm 0 m/s - -
1787878945 21.11° C - - 0 mm 0 m/s - -
1787878285 21.67° C - - 0 mm 0 m/s - -
1787878103 21.67° C - - 0 mm 0 m/s - -
1787877373 22.22° C - - 0 mm 0 m/s - -
1787877263 22.22° C - - 0 mm 0 m/s - -
1787876495 22.78° C - - 0 mm 0.45 m/s, ° - -
1787876423 22.78° C - - 0 mm 0.45 m/s, ° - -
1787875585 23.33° C - - 0 mm 0.89 m/s, ° - -
1787874940 24.44° C - - 0 mm 1.34 m/s, ° - -
1787874743 24.44° C - - 0 mm 1.34 m/s, ° - -
1787873903 24.44° C - - 0 mm 1.34 m/s, ° - -
1787873139 26.11° C - - 0 mm 3.58 m/s, ° - -
1787873063 26.11° C - - 0 mm 3.58 m/s, ° - -
1787872331 26.11° C - - 0 mm 4.02 m/s, ° - -
1787872223 26.11° C - - 0 mm 4.02 m/s, ° - -
1787871502 26.67° C - - 0 mm 1.79 m/s, ° - -
1787871383 26.67° C - - 0 mm 1.79 m/s, ° - -
1787868099 27.78° C - - 0 mm 11.62 m/s, ° - -
1787868023 27.78° C - - 0 mm 11.62 m/s, ° - -
1787866343 28.33° C - - 0 mm 16.99 m/s, ° - -
1787865505 28.89° C - - 0 mm 17.88 m/s, ° - -

* Rain latest hour (hover to see other rain measurements)
** Current wind speed in m/s (hover to see current wind gust speed)